Time,TemperatureF,DewpointF,PressureIn,WindDirection,WindDirectionDegrees,WindSpeedMPH,WindSpeedGustMPH,Humidity,HourlyPrecipIn,Conditions,Clouds,dailyrainin,SoftwareType,DateUTC
2013-11-20 00:00:00,33.8,29.5,30.18,ESE,118,5.0,9.0,84,0.00,,,0.00,Wunderground v.1.15,2013-11-20 06:00:00,
2013-11-20 00:06:00,33.7,29.4,30.18,SE,132,5.0,9.0,84,0.00,,,0.00,Wunderground v.1.15,2013-11-20 06:06:00,
2013-11-20 00:12:00,33.7,29.4,30.18,ESE,123,5.0,9.0,84,0.00,,,0.00,Wunderground v.1.15,2013-11-20 06:12:00,
2013-11-20 00:18:00,33.7,29.7,30.18,SE,144,4.0,9.0,85,0.00,,,0.00,Wunderground v.1.15,2013-11-20 06:18:00,
2013-11-20 00:24:00,33.6,29.6,30.18,ESE,115,5.0,9.0,85,0.00,,,0.00,Wunderground v.1.15,2013-11-20 06:24:00,
2013-11-20 00:30:00,33.5,29.5,30.18,ESE,117,5.0,9.0,85,0.00,,,0.00,Wunderground v.1.15,2013-11-20 06:30:00,
2013-11-20 00:36:00,33.4,29.4,30.17,SE,135,6.0,9.0,85,0.00,,,0.00,Wunderground v.1.15,2013-11-20 06:36:00,
2013-11-20 00:42:00,33.4,29.4,30.17,SE,130,6.0,9.0,85,0.00,,,0.00,Wunderground v.1.15,2013-11-20 06:42:00,
2013-11-20 00:48:00,33.4,29.4,30.17,ESE,109,6.0,9.0,85,0.00,,,0.00,Wunderground v.1.15,2013-11-20 06:48:00,
2013-11-20 00:53:00,33.4,29.4,30.17,ESE,122,7.0,9.0,85,0.00,,,0.00,Wunderground v.1.15,2013-11-20 06:53:00,
2013-11-20 01:00:00,33.4,29.4,30.17,SE,140,6.0,9.0,85,0.00,,,0.00,Wunderground v.1.15,2013-11-20 07:00:00,
2013-11-20 01:06:00,33.5,29.5,30.17,ESE,117,6.0,9.0,85,0.00,,,0.00,Wunderground v.1.15,2013-11-20 07:06:00,
2013-11-20 01:12:00,33.6,29.3,30.17,ESE,121,6.0,9.0,84,0.00,,,0.00,Wunderground v.1.15,2013-11-20 07:12:00,
2013-11-20 01:18:00,33.7,29.4,30.17,SE,129,7.0,9.0,84,0.00,,,0.00,Wunderground v.1.15,2013-11-20 07:18:00,
2013-11-20 01:24:00,33.6,29.3,30.17,ESE,119,6.0,9.0,84,0.00,,,0.00,Wunderground v.1.15,2013-11-20 07:24:00,
2013-11-20 01:30:00,33.6,29.3,30.17,SSE,148,5.0,9.0,84,0.00,,,0.00,Wunderground v.1.15,2013-11-20 07:30:00,
2013-11-20 01:36:00,33.7,29.4,30.18,SSE,161,5.0,9.0,84,0.00,,,0.00,Wunderground v.1.15,2013-11-20 07:36:00,
2013-11-20 01:42:00,33.6,29.0,30.17,SSE,147,6.0,9.0,83,0.00,,,0.00,Wunderground v.1.15,2013-11-20 07:42:00,
2013-11-20 01:48:00,33.4,29.1,30.17,SE,134,5.0,9.0,84,0.00,,,0.00,Wunderground v.1.15,2013-11-20 07:48:00,
2013-11-20 01:54:00,33.3,29.0,30.18,SE,130,5.0,9.0,84,0.00,,,0.00,Wunderground v.1.15,2013-11-20 07:54:00,
2013-11-20 02:00:00,33.3,29.0,30.18,ESE,115,4.0,4.0,84,0.00,,,0.00,Wunderground v.1.15,2013-11-20 08:00:00,
2013-11-20 02:06:00,33.4,28.8,30.18,SE,142,4.0,9.0,83,0.00,,,0.00,Wunderground v.1.15,2013-11-20 08:06:00,
2013-11-20 02:12:00,33.5,28.9,30.18,SE,145,4.0,6.0,83,0.00,,,0.00,Wunderground v.1.15,2013-11-20 08:12:00,
2013-11-20 02:18:00,33.6,29.0,30.18,SE,137,5.0,11.0,83,0.00,,,0.00,Wunderground v.1.15,2013-11-20 08:18:00,
2013-11-20 02:24:00,33.4,28.8,30.18,SE,141,6.0,9.0,83,0.00,,,0.00,Wunderground v.1.15,2013-11-20 08:24:00,
2013-11-20 02:30:00,33.3,28.7,30.17,SE,134,8.0,11.0,83,0.00,,,0.00,Wunderground v.1.15,2013-11-20 08:30:00,
2013-11-20 02:36:00,33.2,28.9,30.17,ESE,121,10.0,14.0,84,0.00,,,0.00,Wunderground v.1.15,2013-11-20 08:36:00,
2013-11-20 02:42:00,33.3,29.0,30.17,SE,134,12.0,18.0,84,0.00,,,0.00,Wunderground v.1.15,2013-11-20 08:42:00,
2013-11-20 02:48:00,33.4,28.8,30.17,SE,129,12.0,18.0,83,0.00,,,0.00,Wunderground v.1.15,2013-11-20 08:48:00,
2013-11-20 02:54:00,33.3,28.7,30.17,SE,130,10.0,11.0,83,0.00,,,0.00,Wunderground v.1.15,2013-11-20 08:54:00,
2013-11-20 03:00:00,33.2,28.6,30.17,SE,135,10.0,10.0,83,0.00,,,0.00,Wunderground v.1.15,2013-11-20 09:00:00,
2013-11-20 03:06:00,33.1,28.8,30.17,SE,144,10.0,14.0,84,0.00,,,0.00,Wunderground v.1.15,2013-11-20 09:06:00,
2013-11-20 03:12:00,33.0,28.7,30.17,SE,143,10.0,16.0,84,0.00,,,0.00,Wunderground v.1.15,2013-11-20 09:12:00,
2013-11-20 03:18:00,32.9,28.6,30.17,SSE,149,10.0,16.0,84,0.00,,,0.00,Wunderground v.1.15,2013-11-20 09:18:00,
2013-11-20 03:24:00,32.8,28.5,30.17,SE,136,9.0,10.0,84,0.00,,,0.00,Wunderground v.1.15,2013-11-20 09:24:00,
2013-11-20 03:30:00,32.8,28.5,30.16,SE,144,9.0,18.0,84,0.00,,,0.00,Wunderground v.1.15,2013-11-20 09:30:00,
2013-11-20 03:36:00,32.7,28.4,30.16,SE,139,10.0,18.0,84,0.00,,,0.00,Wunderground v.1.15,2013-11-20 09:36:00,
2013-11-20 03:42:00,32.6,28.3,30.16,SSE,148,11.0,20.0,84,0.00,,,0.00,Wunderground v.1.15,2013-11-20 09:42:00,
2013-11-20 03:48:00,32.5,28.2,30.16,SE,135,11.0,20.0,84,0.00,,,0.00,Wunderground v.1.15,2013-11-20 09:48:00,
2013-11-20 03:54:00,32.5,28.5,30.16,SSE,149,11.0,12.0,85,0.00,,,0.00,Wunderground v.1.15,2013-11-20 09:54:00,
2013-11-20 04:00:00,32.5,28.5,30.16,SE,126,10.0,10.0,85,0.00,,,0.00,Wunderground v.1.15,2013-11-20 10:00:00,
2013-11-20 04:06:00,32.5,28.5,30.16,SE,137,10.0,12.0,85,0.00,,,0.00,Wunderground v.1.15,2013-11-20 10:06:00,
2013-11-20 04:12:00,32.6,28.3,30.16,SE,130,10.0,10.0,84,0.00,,,0.00,Wunderground v.1.15,2013-11-20 10:12:00,
2013-11-20 04:18:00,32.6,28.3,30.16,SE,130,9.0,15.0,84,0.00,,,0.00,Wunderground v.1.15,2013-11-20 10:18:00,
2013-11-20 04:24:00,32.5,28.2,30.16,SSE,159,10.0,10.0,84,0.00,,,0.00,Wunderground v.1.15,2013-11-20 10:24:00,
2013-11-20 04:30:00,32.4,28.4,30.16,SE,142,11.0,13.0,85,0.00,,,0.00,Wunderground v.1.15,2013-11-20 10:30:00,
2013-11-20 04:36:00,32.3,28.3,30.15,SSE,150,11.0,13.0,85,0.00,,,0.00,Wunderground v.1.15,2013-11-20 10:36:00,
2013-11-20 04:42:00,32.1,28.1,30.15,SE,132,10.0,11.0,85,0.00,,,0.00,Wunderground v.1.15,2013-11-20 10:42:00,
2013-11-20 04:48:00,32.0,28.0,30.15,SE,142,10.0,18.0,85,0.00,,,0.00,Wunderground v.1.15,2013-11-20 10:48:00,
2013-11-20 04:54:00,32.2,28.2,30.15,East,81,11.0,12.0,85,0.00,,,0.00,Wunderground v.1.15,2013-11-20 10:54:00,
2013-11-20 05:00:00,32.3,28.3,30.15,SE,136,11.0,11.0,85,0.00,,,0.00,Wunderground v.1.15,2013-11-20 11:00:00,
2013-11-20 05:06:00,32.4,28.4,30.15,SE,142,11.0,13.0,85,0.00,,,0.00,Wunderground v.1.15,2013-11-20 11:06:00,
2013-11-20 05:12:00,32.5,28.2,30.14,SE,134,11.0,11.0,84,0.00,,,0.00,Wunderground v.1.15,2013-11-20 11:12:00,
2013-11-20 05:18:00,32.4,28.1,30.14,SE,127,10.0,14.0,84,0.00,,,0.00,Wunderground v.1.15,2013-11-20 11:18:00,
2013-11-20 05:24:00,32.3,28.3,30.13,ESE,118,10.0,13.0,85,0.00,,,0.00,Wunderground v.1.15,2013-11-20 11:24:00,
2013-11-20 05:30:00,32.2,27.9,30.13,SE,127,11.0,11.0,84,0.00,,,0.00,Wunderground v.1.15,2013-11-20 11:30:00,
2013-11-20 05:36:00,32.1,28.1,30.13,SE,124,12.0,14.0,85,0.00,,,0.00,Wunderground v.1.15,2013-11-20 11:36:00,
2013-11-20 05:42:00,32.0,28.0,30.13,East,100,12.0,15.0,85,0.00,,,0.00,Wunderground v.1.15,2013-11-20 11:42:00,
2013-11-20 05:48:00,31.9,27.9,30.13,SE,129,11.0,15.0,85,0.00,,,0.00,Wunderground v.1.15,2013-11-20 11:48:00,
2013-11-20 05:54:00,32.0,28.0,30.13,SE,136,11.0,11.0,85,0.00,,,0.00,Wunderground v.1.15,2013-11-20 11:54:00,
2013-11-20 06:00:00,32.1,27.8,30.13,ESE,115,11.0,16.0,84,0.00,,,0.00,Wunderground v.1.15,2013-11-20 12:00:00,
2013-11-20 06:06:00,31.9,27.6,30.13,SE,136,11.0,16.0,84,0.00,,,0.00,Wunderground v.1.15,2013-11-20 12:06:00,
2013-11-20 06:12:00,31.9,27.6,30.13,ESE,123,11.0,11.0,84,0.00,,,0.00,Wunderground v.1.15,2013-11-20 12:12:00,
2013-11-20 06:18:00,31.9,27.6,30.13,SSE,153,10.0,13.0,84,0.00,,,0.00,Wunderground v.1.15,2013-11-20 12:18:00,
2013-11-20 06:24:00,31.8,27.5,30.13,SE,124,9.0,18.0,84,0.00,,,0.00,Wunderground v.1.15,2013-11-20 12:24:00,
2013-11-20 06:30:00,31.8,27.5,30.13,ESE,123,12.0,18.0,84,0.00,,,0.00,Wunderground v.1.15,2013-11-20 12:30:00,
2013-11-20 06:36:00,31.7,27.4,30.13,SE,133,12.0,18.0,84,0.00,,,0.00,Wunderground v.1.15,2013-11-20 12:36:00,
2013-11-20 06:42:00,31.7,27.4,30.13,ESE,117,11.0,11.0,84,0.00,,,0.00,Wunderground v.1.15,2013-11-20 12:42:00,
2013-11-20 06:48:00,31.6,27.3,30.13,ESE,105,11.0,15.0,84,0.00,,,0.00,Wunderground v.1.15,2013-11-20 12:48:00,
2013-11-20 06:54:00,31.6,27.3,30.13,ESE,115,11.0,11.0,84,0.00,,,0.00,Wunderground v.1.15,2013-11-20 12:54:00,
2013-11-20 07:00:00,31.5,27.5,30.14,SE,146,11.0,12.0,85,0.00,,,0.00,Wunderground v.1.15,2013-11-20 13:00:00,
2013-11-20 07:06:00,31.4,27.1,30.14,SSE,152,10.0,14.0,84,0.00,,,0.00,Wunderground v.1.15,2013-11-20 13:06:00,
2013-11-20 07:12:00,31.4,27.4,30.14,SE,128,10.0,10.0,85,0.00,,,0.00,Wunderground v.1.15,2013-11-20 13:12:00,
2013-11-20 07:18:00,31.5,27.5,30.14,SE,125,10.0,12.0,85,0.00,,,0.00,Wunderground v.1.15,2013-11-20 13:18:00,
2013-11-20 07:24:00,31.5,27.5,30.14,SE,134,11.0,12.0,85,0.00,,,0.00,Wunderground v.1.15,2013-11-20 13:24:00,
2013-11-20 07:30:00,31.6,27.6,30.14,ESE,116,10.0,10.0,85,0.00,,,0.00,Wunderground v.1.15,2013-11-20 13:30:00,
2013-11-20 07:36:00,31.7,27.4,30.14,ESE,114,9.0,10.0,84,0.00,,,0.00,Wunderground v.1.15,2013-11-20 13:36:00,
2013-11-20 07:42:00,31.9,27.6,30.14,SE,139,10.0,10.0,84,0.00,,,0.00,Wunderground v.1.15,2013-11-20 13:42:00,
2013-11-20 07:48:00,32.0,27.7,30.14,SE,132,9.0,10.0,84,0.00,,,0.00,Wunderground v.1.15,2013-11-20 13:48:00,
2013-11-20 07:54:00,32.1,27.8,30.14,SE,128,9.0,16.0,84,0.00,,,0.00,Wunderground v.1.15,2013-11-20 13:54:00,
2013-11-20 08:00:00,32.3,28.0,30.14,SE,128,10.0,11.0,84,0.00,,,0.00,Wunderground v.1.15,2013-11-20 14:00:00,
2013-11-20 08:06:00,32.4,27.8,30.14,SE,131,10.0,13.0,83,0.00,,,0.00,Wunderground v.1.15,2013-11-20 14:06:00,
2013-11-20 08:12:00,32.6,28.0,30.15,SE,136,10.0,10.0,83,0.00,,,0.00,Wunderground v.1.15,2013-11-20 14:12:00,
2013-11-20 08:18:00,32.8,28.2,30.15,ESE,117,10.0,11.0,83,0.00,,,0.00,Wunderground v.1.15,2013-11-20 14:18:00,
2013-11-20 08:24:00,33.0,28.4,30.15,SSE,148,10.0,12.0,83,0.00,,,0.00,Wunderground v.1.15,2013-11-20 14:24:00,
2013-11-20 08:30:00,33.4,28.5,30.15,ESE,123,9.0,9.0,82,0.00,,,0.00,Wunderground v.1.15,2013-11-20 14:30:00,
2013-11-20 08:36:00,33.5,28.6,30.15,SE,135,9.0,9.0,82,0.00,,,0.00,Wunderground v.1.15,2013-11-20 14:36:00,
2013-11-20 08:42:00,33.5,28.3,30.15,SE,139,10.0,14.0,81,0.00,,,0.00,Wunderground v.1.15,2013-11-20 14:42:00,
2013-11-20 08:48:00,33.7,28.5,30.15,ESE,119,10.0,14.0,81,0.00,,,0.00,Wunderground v.1.15,2013-11-20 14:48:00,
2013-11-20 08:54:00,33.8,28.6,30.15,SSE,153,10.0,18.0,81,0.00,,,0.00,Wunderground v.1.15,2013-11-20 14:54:00,
2013-11-20 09:00:00,33.9,28.7,30.15,SE,146,12.0,12.0,81,0.00,,,0.00,Wunderground v.1.15,2013-11-20 15:00:00,
2013-11-20 09:06:00,34.0,28.5,30.15,SE,142,12.0,13.0,80,0.00,,,0.00,Wunderground v.1.15,2013-11-20 15:06:00,
2013-11-20 09:12:00,34.1,28.6,30.15,SE,137,10.0,11.0,80,0.00,,,0.00,Wunderground v.1.15,2013-11-20 15:12:00,
2013-11-20 09:18:00,34.1,28.6,30.15,ESE,109,9.0,11.0,80,0.00,,,0.00,Wunderground v.1.15,2013-11-20 15:18:00,
2013-11-20 09:24:00,34.2,28.7,30.15,SE,132,10.0,12.0,80,0.00,,,0.00,Wunderground v.1.15,2013-11-20 15:24:00,
2013-11-20 09:30:00,34.3,28.8,30.15,SE,130,10.0,10.0,80,0.00,,,0.00,Wunderground v.1.15,2013-11-20 15:30:00,
2013-11-20 09:36:00,34.4,28.9,30.15,SSE,152,8.0,13.0,80,0.00,,,0.00,Wunderground v.1.15,2013-11-20 15:36:00,
2013-11-20 09:42:00,34.8,29.3,30.15,SSE,150,9.0,10.0,80,0.00,,,0.00,Wunderground v.1.15,2013-11-20 15:42:00,
2013-11-20 09:48:00,35.3,29.4,30.15,ESE,121,10.0,14.0,79,0.00,,,0.00,Wunderground v.1.15,2013-11-20 15:48:00,
2013-11-20 09:54:00,35.9,29.7,30.15,ESE,122,11.0,14.0,78,0.00,,,0.00,Wunderground v.1.15,2013-11-20 15:54:00,
2013-11-20 10:00:00,36.0,29.5,30.15,ESE,114,13.0,13.0,77,0.00,,,0.00,Wunderground v.1.15,2013-11-20 16:00:00,
2013-11-20 10:06:00,35.9,29.4,30.15,SSE,147,13.0,13.0,77,0.00,,,0.00,Wunderground v.1.15,2013-11-20 16:06:00,
2013-11-20 10:12:00,35.8,29.3,30.15,SSE,159,11.0,13.0,77,0.00,,,0.00,Wunderground v.1.15,2013-11-20 16:12:00,
2013-11-20 10:18:00,36.1,29.9,30.15,SSE,151,10.0,13.0,78,0.00,,,0.00,Wunderground v.1.15,2013-11-20 16:18:00,
2013-11-20 10:24:00,36.3,29.8,30.15,ESE,123,11.0,11.0,77,0.00,,,0.00,Wunderground v.1.15,2013-11-20 16:24:00,
2013-11-20 10:30:00,36.5,30.0,30.14,SE,141,11.0,11.0,77,0.00,,,0.00,Wunderground v.1.15,2013-11-20 16:30:00,
2013-11-20 10:36:00,36.8,30.3,30.15,SSE,160,8.0,11.0,77,0.00,,,0.00,Wunderground v.1.15,2013-11-20 16:36:00,
2013-11-20 10:42:00,37.4,30.5,30.14,SE,138,7.0,10.0,76,0.00,,,0.00,Wunderground v.1.15,2013-11-20 16:42:00,
2013-11-20 10:48:00,37.3,30.4,30.14,SE,140,9.0,12.0,76,0.00,,,0.00,Wunderground v.1.15,2013-11-20 16:48:00,
2013-11-20 10:54:00,37.7,31.1,30.13,ESE,123,9.0,10.0,77,0.00,,,0.00,Wunderground v.1.15,2013-11-20 16:54:00,
2013-11-20 11:00:00,37.9,31.3,30.12,SE,126,8.0,12.0,77,0.00,,,0.00,Wunderground v.1.15,2013-11-20 17:00:00,
2013-11-20 11:06:00,38.1,31.2,30.12,ESE,115,9.0,13.0,76,0.00,,,0.00,Wunderground v.1.15,2013-11-20 17:06:00,
2013-11-20 11:12:00,38.2,31.3,30.12,SE,144,10.0,14.0,76,0.00,,,0.00,Wunderground v.1.15,2013-11-20 17:12:00,
2013-11-20 11:18:00,38.4,31.2,30.12,SE,141,10.0,14.0,75,0.00,,,0.00,Wunderground v.1.15,2013-11-20 17:18:00,
2013-11-20 11:24:00,38.5,30.9,30.12,ESE,120,11.0,16.0,74,0.00,,,0.00,Wunderground v.1.15,2013-11-20 17:24:00,
2013-11-20 11:30:00,38.8,31.2,30.11,ESE,115,11.0,12.0,74,0.00,,,0.00,Wunderground v.1.15,2013-11-20 17:30:00,
2013-11-20 11:36:00,38.9,31.3,30.10,SE,140,11.0,20.0,74,0.00,,,0.00,Wunderground v.1.15,2013-11-20 17:36:00,
2013-11-20 11:42:00,38.7,31.1,30.11,SE,135,12.0,13.0,74,0.00,,,0.00,Wunderground v.1.15,2013-11-20 17:42:00,
2013-11-20 11:48:00,38.8,31.2,30.10,SSE,155,11.0,15.0,74,0.00,,,0.00,Wunderground v.1.15,2013-11-20 17:48:00,
2013-11-20 11:54:00,38.8,31.2,30.09,ESE,111,11.0,11.0,74,0.00,,,0.00,Wunderground v.1.15,2013-11-20 17:54:00,
2013-11-20 12:00:00,38.8,31.6,30.08,ESE,112,12.0,12.0,75,0.00,,,0.00,Wunderground v.1.15,2013-11-20 18:00:00,
2013-11-20 12:06:00,38.8,31.2,30.08,SE,144,13.0,15.0,74,0.00,,,0.00,Wunderground v.1.15,2013-11-20 18:06:00,
2013-11-20 12:12:00,38.9,31.3,30.08,SE,135,11.0,12.0,74,0.00,,,0.00,Wunderground v.1.15,2013-11-20 18:12:00,
2013-11-20 12:18:00,39.2,31.6,30.08,SE,125,10.0,12.0,74,0.00,,,0.00,Wunderground v.1.15,2013-11-20 18:18:00,
2013-11-20 12:24:00,39.1,31.5,30.08,SE,140,9.0,14.0,74,0.00,,,0.00,Wunderground v.1.15,2013-11-20 18:24:00,
2013-11-20 12:30:00,39.2,31.9,30.08,SE,125,8.0,9.0,75,0.00,,,0.00,Wunderground v.1.15,2013-11-20 18:30:00,
2013-11-20 12:36:00,39.1,31.5,30.07,SE,138,10.0,10.0,74,0.00,,,0.00,Wunderground v.1.15,2013-11-20 18:36:00,
2013-11-20 12:42:00,39.1,31.5,30.07,SSE,148,10.0,12.0,74,0.00,,,0.00,Wunderground v.1.15,2013-11-20 18:42:00,
2013-11-20 12:48:00,39.0,31.4,30.06,SE,134,11.0,16.0,74,0.00,,,0.00,Wunderground v.1.15,2013-11-20 18:48:00,
2013-11-20 12:54:00,39.2,32.3,30.05,ESE,122,9.0,10.0,76,0.00,,,0.00,Wunderground v.1.15,2013-11-20 18:54:00,
2013-11-20 13:00:00,39.2,31.9,30.05,SE,146,9.0,9.0,75,0.00,,,0.00,Wunderground v.1.15,2013-11-20 19:00:00,
2013-11-20 13:06:00,39.4,32.1,30.05,SE,130,9.0,10.0,75,0.00,,,0.00,Wunderground v.1.15,2013-11-20 19:06:00,
2013-11-20 13:12:00,39.6,32.3,30.04,SE,142,9.0,9.0,75,0.00,,,0.00,Wunderground v.1.15,2013-11-20 19:12:00,
2013-11-20 13:18:00,39.7,32.1,30.04,SE,127,9.0,14.0,74,0.00,,,0.00,Wunderground v.1.15,2013-11-20 19:18:00,
2013-11-20 13:24:00,39.7,32.1,30.04,ESE,122,11.0,14.0,74,0.00,,,0.00,Wunderground v.1.15,2013-11-20 19:24:00,
2013-11-20 13:30:00,39.8,32.2,30.04,SSE,157,10.0,10.0,74,0.00,,,0.00,Wunderground v.1.15,2013-11-20 19:30:00,
2013-11-20 13:36:00,39.9,32.3,30.03,ESE,118,9.0,14.0,74,0.00,,,0.00,Wunderground v.1.15,2013-11-20 19:36:00,
2013-11-20 13:42:00,40.0,32.7,30.03,ESE,109,10.0,10.0,75,0.00,,,0.00,Wunderground v.1.15,2013-11-20 19:42:00,
2013-11-20 13:48:00,40.1,33.1,30.03,SE,135,9.0,10.0,76,0.00,,,0.00,Wunderground v.1.15,2013-11-20 19:48:00,
2013-11-20 13:54:00,40.1,32.1,30.02,SE,137,11.0,11.0,73,0.00,,,0.00,Wunderground v.1.15,2013-11-20 19:54:00,
2013-11-20 14:00:00,40.1,32.5,30.02,SSE,151,10.0,13.0,74,0.00,,,0.00,Wunderground v.1.15,2013-11-20 20:00:00,
2013-11-20 14:06:00,40.1,32.8,30.02,SE,126,10.0,13.0,75,0.00,,,0.00,Wunderground v.1.15,2013-11-20 20:06:00,
2013-11-20 14:12:00,40.2,32.6,30.02,SE,145,10.0,16.0,74,0.00,,,0.00,Wunderground v.1.15,2013-11-20 20:12:00,
2013-11-20 14:18:00,40.3,32.7,30.01,SSE,151,12.0,16.0,74,0.00,,,0.00,Wunderground v.1.15,2013-11-20 20:18:00,
2013-11-20 14:24:00,40.2,32.6,30.02,SE,140,10.0,11.0,74,0.00,,,0.00,Wunderground v.1.15,2013-11-20 20:24:00,
2013-11-20 14:30:00,40.2,32.6,30.02,SE,142,10.0,10.0,74,0.00,,,0.00,Wunderground v.1.15,2013-11-20 20:30:00,
2013-11-20 14:36:00,40.1,32.5,30.02,SE,139,11.0,11.0,74,0.00,,,0.00,Wunderground v.1.15,2013-11-20 20:36:00,
2013-11-20 14:42:00,40.1,32.8,30.02,SSE,148,9.0,10.0,75,0.00,,,0.00,Wunderground v.1.15,2013-11-20 20:42:00,
2013-11-20 14:48:00,40.1,32.8,30.02,ESE,120,8.0,10.0,75,0.00,,,0.00,Wunderground v.1.15,2013-11-20 20:48:00,
2013-11-20 14:54:00,40.1,32.8,30.02,SSE,155,9.0,10.0,75,0.00,,,0.00,Wunderground v.1.15,2013-11-20 20:54:00,
2013-11-20 15:00:00,40.1,32.8,30.02,SSE,157,9.0,9.0,75,0.00,,,0.00,Wunderground v.1.15,2013-11-20 21:00:00,
2013-11-20 15:06:00,40.1,33.1,30.02,SE,146,7.0,9.0,76,0.00,,,0.00,Wunderground v.1.15,2013-11-20 21:06:00,
2013-11-20 15:12:00,40.1,32.8,30.02,SSE,156,7.0,10.0,75,0.00,,,0.00,Wunderground v.1.15,2013-11-20 21:12:00,
2013-11-20 15:18:00,40.2,33.2,30.01,ESE,120,9.0,11.0,76,0.00,,,0.00,Wunderground v.1.15,2013-11-20 21:18:00,
2013-11-20 15:24:00,40.1,33.5,30.01,East,86,9.0,12.0,77,0.00,,,0.00,Wunderground v.1.15,2013-11-20 21:24:00,
2013-11-20 15:30:00,40.1,33.5,30.00,ESE,103,9.0,9.0,77,0.00,,,0.00,Wunderground v.1.15,2013-11-20 21:30:00,
2013-11-20 15:36:00,40.0,33.4,30.00,ESE,123,9.0,12.0,77,0.00,,,0.00,Wunderground v.1.15,2013-11-20 21:36:00,
2013-11-20 15:42:00,40.1,33.5,30.01,SE,125,8.0,10.0,77,0.00,,,0.00,Wunderground v.1.15,2013-11-20 21:42:00,
2013-11-20 15:48:00,40.1,33.8,30.01,ESE,121,6.0,10.0,78,0.00,,,0.00,Wunderground v.1.15,2013-11-20 21:48:00,
2013-11-20 15:54:00,40.0,33.7,30.01,ESE,112,7.0,9.0,78,0.00,,,0.00,Wunderground v.1.15,2013-11-20 21:54:00,
2013-11-20 16:00:00,39.8,33.8,30.00,ESE,110,7.0,7.0,79,0.00,,,0.00,Wunderground v.1.15,2013-11-20 22:00:00,
2013-11-20 16:06:00,39.7,34.0,30.00,East,101,7.0,9.0,80,0.00,,,0.00,Wunderground v.1.15,2013-11-20 22:06:00,
2013-11-20 16:12:00,39.6,33.9,30.00,East,98,7.0,10.0,80,0.00,,,0.00,Wunderground v.1.15,2013-11-20 22:12:00,
2013-11-20 16:18:00,39.6,34.2,30.00,ESE,123,8.0,10.0,81,0.00,,,0.01,Wunderground v.1.15,2013-11-20 22:18:00,
2013-11-20 16:24:00,39.5,34.5,30.00,ESE,117,7.0,10.0,82,0.00,,,0.01,Wunderground v.1.15,2013-11-20 22:24:00,
2013-11-20 16:30:00,39.5,34.5,30.00,ESE,120,8.0,8.0,82,0.00,,,0.01,Wunderground v.1.15,2013-11-20 22:30:00,
2013-11-20 16:36:00,39.5,34.5,30.00,SE,130,8.0,10.0,82,0.00,,,0.01,Wunderground v.1.15,2013-11-20 22:36:00,
2013-11-20 16:42:00,39.6,34.9,30.00,SE,126,9.0,14.0,83,0.00,,,0.01,Wunderground v.1.15,2013-11-20 22:42:00,
2013-11-20 16:48:00,39.6,34.9,29.99,ESE,123,10.0,14.0,83,0.00,,,0.01,Wunderground v.1.15,2013-11-20 22:48:00,
2013-11-20 16:54:00,39.6,34.9,29.99,SE,133,10.0,13.0,83,0.00,,,0.01,Wunderground v.1.15,2013-11-20 22:54:00,
2013-11-20 17:00:00,39.6,34.9,30.00,SE,128,9.0,9.0,83,0.00,,,0.01,Wunderground v.1.15,2013-11-20 23:00:00,
2013-11-20 17:06:00,39.4,35.0,30.00,SE,142,7.0,12.0,84,0.00,,,0.02,Wunderground v.1.15,2013-11-20 23:06:00,
2013-11-20 17:12:00,39.3,35.2,30.00,SE,146,7.0,11.0,85,0.00,,,0.02,Wunderground v.1.15,2013-11-20 23:12:00,
2013-11-20 17:18:00,39.2,35.1,30.00,SE,136,7.0,11.0,85,0.00,,,0.02,Wunderground v.1.15,2013-11-20 23:18:00,
2013-11-20 17:24:00,39.2,35.4,30.00,SE,126,7.0,9.0,86,0.00,,,0.02,Wunderground v.1.15,2013-11-20 23:24:00,
2013-11-20 17:30:00,39.1,35.3,30.01,ESE,120,6.0,9.0,86,0.00,,,0.02,Wunderground v.1.15,2013-11-20 23:30:00,
2013-11-20 17:36:00,39.2,35.4,30.01,SE,136,7.0,9.0,86,0.00,,,0.02,Wunderground v.1.15,2013-11-20 23:36:00,
2013-11-20 17:42:00,39.2,35.4,30.02,SE,140,6.0,9.0,86,0.00,,,0.02,Wunderground v.1.15,2013-11-20 23:42:00,
2013-11-20 17:48:00,39.2,35.4,30.03,South,180,5.0,9.0,86,0.00,,,0.02,Wunderground v.1.15,2013-11-20 23:48:00,
2013-11-20 17:54:00,39.2,35.4,30.04,SSE,158,4.0,9.0,86,0.00,,,0.02,Wunderground v.1.15,2013-11-20 23:54:00,
2013-11-20 18:00:00,39.1,35.0,30.04,SSE,158,3.0,9.0,85,0.00,,,0.02,Wunderground v.1.15,2013-11-21 00:00:00,
2013-11-20 18:06:00,39.1,35.3,30.05,South,177,3.0,9.0,86,0.00,,,0.03,Wunderground v.1.15,2013-11-21 00:06:00,
2013-11-20 18:12:00,38.8,35.0,30.04,SSE,147,4.0,9.0,86,0.00,,,0.03,Wunderground v.1.15,2013-11-21 00:12:00,
2013-11-20 18:18:00,38.6,34.8,30.05,SSE,156,5.0,9.0,86,0.06,,,0.04,Wunderground v.1.15,2013-11-21 00:18:00,
2013-11-20 18:24:00,38.4,34.9,30.05,SE,131,6.0,9.0,87,0.06,,,0.05,Wunderground v.1.15,2013-11-21 00:24:00,
2013-11-20 18:30:00,38.2,35.0,30.04,ESE,123,6.0,9.0,88,0.06,,,0.05,Wunderground v.1.15,2013-11-21 00:30:00,
2013-11-20 18:36:00,38.1,35.1,30.03,SE,145,8.0,10.0,89,0.09,,,0.06,Wunderground v.1.15,2013-11-21 00:36:00,
2013-11-20 18:42:00,38.0,35.0,30.02,ESE,119,9.0,9.0,89,0.11,,,0.08,Wunderground v.1.15,2013-11-21 00:42:00,
2013-11-20 18:48:00,38.0,35.3,30.02,ESE,113,8.0,9.0,90,0.14,,,0.09,Wunderground v.1.15,2013-11-21 00:48:00,
2013-11-20 18:54:00,37.9,35.2,30.01,ESE,120,8.0,9.0,90,0.14,,,0.10,Wunderground v.1.15,2013-11-21 00:54:00,
2013-11-20 19:00:00,37.9,35.2,30.02,SE,125,9.0,9.0,90,0.15,,,0.12,Wunderground v.1.15,2013-11-21 01:00:00,
2013-11-20 19:06:00,37.9,35.2,30.02,ESE,123,8.0,11.0,90,0.14,,,0.13,Wunderground v.1.15,2013-11-21 01:06:00,
2013-11-20 19:12:00,37.9,35.5,30.02,ESE,123,8.0,13.0,91,0.12,,,0.14,Wunderground v.1.15,2013-11-21 01:12:00,
2013-11-20 19:18:00,38.0,35.3,30.03,SE,131,9.0,13.0,90,0.07,,,0.15,Wunderground v.1.15,2013-11-21 01:18:00,
2013-11-20 19:24:00,38.1,35.4,30.02,SE,136,9.0,11.0,90,0.07,,,0.15,Wunderground v.1.15,2013-11-21 01:24:00,
2013-11-20 19:30:00,38.1,35.7,30.02,SE,140,9.0,10.0,91,0.05,,,0.16,Wunderground v.1.15,2013-11-21 01:30:00,
2013-11-20 19:36:00,38.1,35.7,30.02,SE,146,10.0,11.0,91,0.05,,,0.16,Wunderground v.1.15,2013-11-21 01:36:00,
2013-11-20 19:42:00,38.1,35.7,30.02,SE,126,10.0,13.0,91,0.06,,,0.17,Wunderground v.1.15,2013-11-21 01:42:00,
2013-11-20 19:48:00,38.2,35.8,30.02,SE,126,9.0,15.0,91,0.06,,,0.17,Wunderground v.1.15,2013-11-21 01:48:00,
2013-11-20 19:54:00,38.2,35.8,30.02,SSE,150,9.0,9.0,91,0.06,,,0.18,Wunderground v.1.15,2013-11-21 01:54:00,
2013-11-20 20:00:00,38.1,35.7,30.02,SE,141,7.0,7.0,91,0.05,,,0.18,Wunderground v.1.15,2013-11-21 02:00:00,
2013-11-20 20:06:00,38.2,35.8,30.02,SE,124,7.0,9.0,91,0.00,,,0.18,Wunderground v.1.15,2013-11-21 02:06:00,
2013-11-20 20:12:00,38.3,35.9,30.02,SE,143,7.0,9.0,91,0.00,,,0.18,Wunderground v.1.15,2013-11-21 02:12:00,
2013-11-20 20:18:00,38.3,35.9,30.03,SE,139,6.0,9.0,91,0.00,,,0.18,Wunderground v.1.15,2013-11-21 02:18:00,
2013-11-20 20:24:00,38.3,35.9,30.03,East,93,7.0,9.0,91,0.00,,,0.18,Wunderground v.1.15,2013-11-21 02:24:00,
2013-11-20 20:30:00,38.4,36.0,30.02,SE,130,8.0,10.0,91,0.00,,,0.18,Wunderground v.1.15,2013-11-21 02:30:00,
2013-11-20 20:36:00,38.5,36.1,30.02,ESE,122,8.0,10.0,91,0.00,,,0.18,Wunderground v.1.15,2013-11-21 02:36:00,
2013-11-20 20:42:00,38.5,36.1,30.03,SSE,165,7.0,10.0,91,0.00,,,0.18,Wunderground v.1.15,2013-11-21 02:42:00,
2013-11-20 20:48:00,38.5,36.1,30.03,SE,146,7.0,10.0,91,0.00,,,0.18,Wunderground v.1.15,2013-11-21 02:48:00,
2013-11-20 20:54:00,38.6,36.2,30.03,SE,128,7.0,14.0,91,0.00,,,0.18,Wunderground v.1.15,2013-11-21 02:54:00,
2013-11-20 21:00:00,38.6,36.2,30.02,SSE,151,9.0,9.0,91,0.00,,,0.18,Wunderground v.1.15,2013-11-21 03:00:00,
2013-11-20 21:06:00,38.6,36.2,30.02,ESE,120,7.0,9.0,91,0.00,,,0.18,Wunderground v.1.15,2013-11-21 03:06:00,
2013-11-20 21:12:00,38.6,36.2,30.02,SSE,149,6.0,9.0,91,0.00,,,0.18,Wunderground v.1.15,2013-11-21 03:12:00,
2013-11-20 21:18:00,38.7,36.3,30.03,SSE,153,6.0,9.0,91,0.00,,,0.18,Wunderground v.1.15,2013-11-21 03:18:00,
2013-11-20 21:24:00,38.7,36.3,30.03,SSE,156,6.0,10.0,91,0.00,,,0.18,Wunderground v.1.15,2013-11-21 03:24:00,
2013-11-20 21:30:00,38.7,36.3,30.03,SE,124,8.0,8.0,91,0.00,,,0.18,Wunderground v.1.15,2013-11-21 03:30:00,
2013-11-20 21:36:00,38.7,36.3,30.02,SE,143,8.0,11.0,91,0.00,,,0.18,Wunderground v.1.15,2013-11-21 03:36:00,
2013-11-20 21:42:00,38.7,36.3,30.02,SSE,147,8.0,12.0,91,0.00,,,0.18,Wunderground v.1.15,2013-11-21 03:42:00,
2013-11-20 21:48:00,38.7,36.3,30.02,SE,131,9.0,12.0,91,0.00,,,0.18,Wunderground v.1.15,2013-11-21 03:48:00,
2013-11-20 21:54:00,38.7,36.3,30.02,SE,134,10.0,10.0,91,0.00,,,0.18,Wunderground v.1.15,2013-11-21 03:54:00,
2013-11-20 22:00:00,38.7,36.3,30.02,ESE,121,8.0,8.0,91,0.00,,,0.18,Wunderground v.1.15,2013-11-21 04:00:00,
2013-11-20 22:06:00,38.8,36.4,30.02,SE,145,8.0,9.0,91,0.00,,,0.18,Wunderground v.1.15,2013-11-21 04:06:00,
2013-11-20 22:12:00,38.8,36.4,30.02,SSE,165,7.0,9.0,91,0.00,,,0.18,Wunderground v.1.15,2013-11-21 04:12:00,
2013-11-20 22:18:00,38.8,36.4,30.02,SSE,150,7.0,9.0,91,0.00,,,0.18,Wunderground v.1.15,2013-11-21 04:18:00,
2013-11-20 22:24:00,38.8,36.4,30.02,SE,145,5.0,9.0,91,0.00,,,0.18,Wunderground v.1.15,2013-11-21 04:24:00,
2013-11-20 22:30:00,38.9,36.5,30.03,SSE,148,5.0,5.0,91,0.00,,,0.18,Wunderground v.1.15,2013-11-21 04:30:00,
2013-11-20 22:36:00,38.9,36.5,30.03,SE,131,3.0,9.0,91,0.00,,,0.18,Wunderground v.1.15,2013-11-21 04:36:00,
2013-11-20 22:42:00,39.0,36.6,30.03,SSE,149,2.0,9.0,91,0.00,,,0.18,Wunderground v.1.15,2013-11-21 04:42:00,
2013-11-20 22:48:00,39.0,36.6,30.03,SE,142,3.0,9.0,91,0.00,,,0.18,Wunderground v.1.15,2013-11-21 04:48:00,
2013-11-20 22:54:00,39.1,36.7,30.03,SE,130,4.0,9.0,91,0.00,,,0.18,Wunderground v.1.15,2013-11-21 04:54:00,
2013-11-20 23:00:00,39.1,36.7,30.03,ESE,118,4.0,9.0,91,0.00,,,0.18,Wunderground v.1.15,2013-11-21 05:00:00,
2013-11-20 23:02:00,39.1,36.7,30.03,SE,136,4.0,9.0,91,0.00,,,0.18,Wunderground v.1.15,2013-11-21 05:02:00,
2013-11-20 23:04:00,39.1,36.7,30.03,SE,130,5.0,9.0,91,0.00,,,0.18,Wunderground v.1.15,2013-11-21 05:04:00,
2013-11-20 23:06:00,39.1,36.7,30.03,SE,139,5.0,9.0,91,0.00,,,0.18,Wunderground v.1.15,2013-11-21 05:06:00,
2013-11-20 23:10:00,39.1,36.7,30.03,SE,127,5.0,5.0,91,0.00,,,0.18,Wunderground v.1.15,2013-11-21 05:10:00,
2013-11-20 23:16:00,39.1,36.7,30.02,SSE,149,6.0,12.0,91,0.00,,,0.18,Wunderground v.1.15,2013-11-21 05:16:00,
2013-11-20 23:22:00,39.2,36.8,30.02,SE,139,6.0,9.0,91,0.00,,,0.18,Wunderground v.1.15,2013-11-21 05:22:00,
2013-11-20 23:28:00,39.2,36.8,30.02,SE,135,6.0,9.0,91,0.00,,,0.18,Wunderground v.1.15,2013-11-21 05:28:00,
2013-11-20 23:34:00,39.2,36.8,30.02,SSE,153,6.0,9.0,91,0.00,,,0.18,Wunderground v.1.15,2013-11-21 05:34:00,
2013-11-20 23:40:00,39.2,36.8,30.02,SE,130,5.0,9.0,91,0.00,,,0.18,Wunderground v.1.15,2013-11-21 05:40:00,
2013-11-20 23:46:00,39.3,36.9,30.02,SE,146,5.0,9.0,91,0.00,,,0.18,Wunderground v.1.15,2013-11-21 05:46:00,
2013-11-20 23:52:00,39.3,36.9,30.02,ESE,117,5.0,9.0,91,0.00,,,0.18,Wunderground v.1.15,2013-11-21 05:52:00,
2013-11-20 23:58:00,39.3,36.9,30.02,SE,139,5.0,9.0,91,0.00,,,0.18,Wunderground v.1.15,2013-11-21 05:58:00,